Flag for Colombia Weather past 2 weeks in Cúcuta, Colombia

Now
72 °F

Passing clouds.


Feels Like: 71 °F
Forecast: 68 / 102 °F
Wind: 3 mph from South

Location: Bucaramanga / Palonegro

Current Time: Aug 31, 2014 at 1:34:50 AM

Latest Report: Aug 30, 2014 at 11:00 PM


Visibility: N/A

Pressure: 30.04 "Hg

Humidity: 83%

Dew point: 66 °F

Location of CúcutaLocation

Historic Weather in Cúcuta — Graph

°F

Cúcuta temperature yesterday

Maximum temperature yesterday: 81 °F (at 12:00 PM)
Minimum temperature yesterday: 66 °F (at 6:00 AM)
Average temperature yesterday: 75 °F

Past Weeks' High & Low Weather Summary

 TemperatureHumidityPressure
High81 °F (Aug 16, 10:00 AM)100% (Aug 17, 6:00 AM)30.08 "Hg (Aug 17, 6:00 AM)
Low64 °F (Aug 17, 6:00 AM)48% (Aug 30, 12:00 PM)29.87 "Hg (Aug 25, 4:00 PM)
Average72 °F82%29.99 "Hg
* Reported Aug 15 11:00 PM — Aug 30 11:00 PM, Cúcuta, Weather by CustomWeather, © 2014

Note: Actual official high and low records may vary slightly from our data, if they occured in-between our weather recording intervals... More about our weather records

Advertising

Cúcuta weather history for previous 24 hours

 ConditionsComfort  
Time TempWeatherWind HumidityBarometerVisibility
11:00 PM
Aug 30
72 °FPassing clouds.3 mph83%30.04 "HgN/A
10:00 PM72 °FPassing clouds.No wind83%30.05 "HgN/A
9:00 PM73 °FPassing clouds.No wind78%30.04 "HgN/A
8:00 PM73 °FPassing clouds.2 mph83%30.02 "HgN/A
7:00 PM73 °FPassing clouds.2 mph83%29.99 "HgN/A
6:00 PM75 °FScattered clouds.6 mph74%29.98 "HgN/A
5:00 PM77 °FScattered clouds.5 mph65%29.96 "HgN/A
4:00 PM81 °FPassing clouds.5 mph48%29.96 "HgN/A
3:00 PM81 °FPassing clouds.6 mph58%29.97 "HgN/A
2:00 PM79 °FScattered clouds.8 mph65%29.97 "HgN/A
1:00 PM79 °FScattered clouds.7 mph65%30.01 "HgN/A
12:00 PM81 °FPassing clouds.3 mph48%30.04 "HgN/A
11:00 AM79 °FPassing clouds.2 mph51%30.05 "HgN/A
10:00 AM77 °FPassing clouds.7 mph51%30.07 "HgN/A
9:00 AM73 °FPassing clouds.7 mph69%30.07 "HgN/A
8:00 AM70 °FPassing clouds.6 mph78%30.06 "HgN/A
7:00 AM66 °FScattered clouds.8 mph88%30.04 "HgN/A
6:00 AM66 °FScattered clouds.7 mph94%30.03 "HgN/A
Weather by CustomWeather, © 2014

See weather overviewHow to use our weather pages